Time,TemperatureF,DewpointF,PressureIn,WindDirection,WindDirectionDegrees,WindSpeedMPH,WindSpeedGustMPH,Humidity,HourlyPrecipIn,Conditions,Clouds,dailyrainin,SoftwareType,DateUTC
2013-06-24 00:04:00,80.5,75.0,29.95,SSE,160,10.0,16.0,84,0.00,,,0.00,weatherlink.com 1.10,2013-06-24 05:04:00,
2013-06-24 00:19:00,80.4,75.0,29.96,SE,135,15.0,16.0,83,0.00,,,0.00,weatherlink.com 1.10,2013-06-24 05:19:00,
2013-06-24 00:34:00,80.3,75.0,29.96,SSE,163,11.0,16.0,84,0.00,,,0.00,weatherlink.com 1.10,2013-06-24 05:34:00,
2013-06-24 00:49:00,80.2,75.0,29.95,SSE,163,13.0,15.0,84,0.00,,,0.00,weatherlink.com 1.10,2013-06-24 05:49:00,
2013-06-24 01:04:00,80.2,75.0,29.95,SE,127,12.0,18.0,84,0.00,,,0.00,weatherlink.com 1.10,2013-06-24 06:04:00,
2013-06-24 01:34:00,80.2,75.0,29.95,SE,136,8.0,16.0,84,0.00,,,0.00,weatherlink.com 1.10,2013-06-24 06:34:00,
2013-06-24 01:49:00,80.0,75.0,29.94,SE,127,8.0,18.0,84,0.00,,,0.00,weatherlink.com 1.10,2013-06-24 06:49:00,
2013-06-24 02:19:00,79.8,75.0,29.94,SE,146,9.0,16.0,86,0.00,,,0.00,weatherlink.com 1.10,2013-06-24 07:19:00,
2013-06-24 02:34:00,79.9,75.0,29.94,SE,144,10.0,16.0,85,0.00,,,0.00,weatherlink.com 1.10,2013-06-24 07:34:00,
2013-06-24 02:49:00,79.7,75.0,29.94,SE,142,10.0,15.0,86,0.00,,,0.00,weatherlink.com 1.10,2013-06-24 07:49:00,
2013-06-24 03:04:00,79.7,75.0,29.94,SSE,160,10.0,15.0,86,0.00,,,0.00,weatherlink.com 1.10,2013-06-24 08:04:00,
2013-06-24 03:34:00,79.6,76.0,29.94,SE,126,8.0,15.0,87,0.00,,,0.00,weatherlink.com 1.10,2013-06-24 08:34:00,
2013-06-24 03:49:00,79.7,75.0,29.94,SSE,151,15.0,16.0,86,0.00,,,0.00,weatherlink.com 1.10,2013-06-24 08:49:00,
2013-06-24 04:04:00,79.6,76.0,29.94,SSE,150,9.0,16.0,87,0.00,,,0.00,weatherlink.com 1.10,2013-06-24 09:04:00,
2013-06-24 04:19:00,79.6,76.0,29.93,SSE,167,9.0,18.0,87,0.00,,,0.00,weatherlink.com 1.10,2013-06-24 09:19:00,
2013-06-24 04:50:00,79.4,76.0,29.94,SSE,154,7.0,14.0,88,0.00,,,0.00,weatherlink.com 1.10,2013-06-24 09:50:00,
2013-06-24 05:05:00,79.4,75.0,29.94,SSE,152,10.0,14.0,87,0.00,,,0.00,weatherlink.com 1.10,2013-06-24 10:05:00,
2013-06-24 05:20:00,79.3,75.0,29.94,SE,136,12.0,14.0,87,0.00,,,0.00,weatherlink.com 1.10,2013-06-24 10:20:00,
2013-06-24 05:35:00,79.3,76.0,29.94,South,171,10.0,14.0,88,0.00,,,0.00,weatherlink.com 1.10,2013-06-24 10:35:00,
2013-06-24 05:50:00,79.4,75.0,29.95,SSE,148,7.0,14.0,87,0.00,,,0.00,weatherlink.com 1.10,2013-06-24 10:50:00,
2013-06-24 06:20:00,79.4,75.0,29.94,South,182,10.0,15.0,87,0.00,,,0.00,weatherlink.com 1.10,2013-06-24 11:20:00,
2013-06-24 06:35:00,79.3,76.0,29.94,South,174,9.0,14.0,88,0.00,,,0.00,weatherlink.com 1.10,2013-06-24 11:35:00,
2013-06-24 06:50:00,79.3,76.0,29.95,SSE,148,8.0,16.0,88,0.00,,,0.00,weatherlink.com 1.10,2013-06-24 11:50:00,
2013-06-24 07:05:00,79.5,76.0,29.95,SSE,152,6.0,13.0,88,0.00,,,0.00,weatherlink.com 1.10,2013-06-24 12:05:00,
2013-06-24 07:20:00,79.8,76.0,29.95,SE,131,8.0,13.0,87,0.00,,,0.00,weatherlink.com 1.10,2013-06-24 12:20:00,
2013-06-24 07:35:00,80.3,76.0,29.96,SE,132,7.0,14.0,87,0.00,,,0.00,weatherlink.com 1.10,2013-06-24 12:35:00,
2013-06-24 07:50:00,80.7,76.0,29.96,SE,138,11.0,13.0,86,0.00,,,0.00,weatherlink.com 1.10,2013-06-24 12:50:00,
2013-06-24 08:05:00,81.1,76.0,29.97,SSE,154,11.0,15.0,85,0.00,,,0.00,weatherlink.com 1.10,2013-06-24 13:05:00,
2013-06-24 08:20:00,81.5,76.0,29.98,SE,138,13.0,14.0,84,0.00,,,0.00,weatherlink.com 1.10,2013-06-24 13:20:00,
2013-06-24 08:35:00,82.0,76.0,29.98,SE,132,6.0,15.0,83,0.00,,,0.00,weatherlink.com 1.10,2013-06-24 13:35:00,
2013-06-24 08:50:00,82.3,77.0,29.99,SE,141,9.0,19.0,83,0.00,,,0.00,weatherlink.com 1.10,2013-06-24 13:50:00,
2013-06-24 09:05:00,82.4,76.0,29.99,South,169,14.0,16.0,82,0.00,,,0.00,weatherlink.com 1.10,2013-06-24 14:05:00,
2013-06-24 09:20:00,82.8,76.0,29.99,SSE,165,9.0,20.0,81,0.00,,,0.00,weatherlink.com 1.10,2013-06-24 14:20:00,
2013-06-24 09:50:00,83.3,76.0,30.00,SSE,150,13.0,16.0,79,0.00,,,0.00,weatherlink.com 1.10,2013-06-24 14:50:00,
2013-06-24 10:05:00,84.0,77.0,30.00,SE,144,12.0,19.0,78,0.00,,,0.00,weatherlink.com 1.10,2013-06-24 15:05:00,
2013-06-24 10:20:00,84.2,77.0,30.00,SSE,147,9.0,22.0,78,0.00,,,0.00,weatherlink.com 1.10,2013-06-24 15:20:00,
2013-06-24 10:35:00,83.7,77.0,30.00,SE,142,15.0,19.0,79,0.00,,,0.00,weatherlink.com 1.10,2013-06-24 15:35:00,
2013-06-24 10:50:00,83.8,77.0,30.00,SE,144,8.0,19.0,79,0.00,,,0.00,weatherlink.com 1.10,2013-06-24 15:50:00,
2013-06-24 11:05:00,84.3,77.0,30.00,SE,143,9.0,19.0,78,0.00,,,0.00,weatherlink.com 1.10,2013-06-24 16:05:00,
2013-06-24 11:20:00,84.7,76.0,30.00,SSE,148,11.0,21.0,76,0.00,,,0.00,weatherlink.com 1.10,2013-06-24 16:20:00,
2013-06-24 11:35:00,84.7,76.0,30.00,SE,125,18.0,20.0,76,0.00,,,0.00,weatherlink.com 1.10,2013-06-24 16:35:00,
2013-06-24 11:50:00,85.0,76.0,30.00,SSE,168,13.0,21.0,75,0.00,,,0.00,weatherlink.com 1.10,2013-06-24 16:50:00,
2013-06-24 12:05:00,84.9,77.0,30.00,South,170,13.0,18.0,76,0.00,,,0.00,weatherlink.com 1.10,2013-06-24 17:05:00,
2013-06-24 12:20:00,85.4,77.0,30.00,ESE,109,18.0,19.0,75,0.00,,,0.00,weatherlink.com 1.10,2013-06-24 17:20:00,
2013-06-24 12:35:00,85.2,77.0,30.00,SE,138,19.0,21.0,75,0.00,,,0.00,weatherlink.com 1.10,2013-06-24 17:35:00,
2013-06-24 12:50:00,84.8,77.0,30.00,SSE,152,9.0,21.0,76,0.00,,,0.00,weatherlink.com 1.10,2013-06-24 17:50:00,
2013-06-24 13:20:00,85.1,76.0,30.00,SE,135,10.0,22.0,74,0.00,,,0.00,weatherlink.com 1.10,2013-06-24 18:20:00,
2013-06-24 13:35:00,85.3,77.0,29.99,ESE,113,10.0,20.0,75,0.00,,,0.00,weatherlink.com 1.10,2013-06-24 18:35:00,
2013-06-24 13:50:00,85.0,76.0,29.99,SE,142,15.0,24.0,75,0.00,,,0.00,weatherlink.com 1.10,2013-06-24 18:50:00,
2013-06-24 14:05:00,85.3,76.0,29.98,SE,139,19.0,24.0,74,0.00,,,0.00,weatherlink.com 1.10,2013-06-24 19:05:00,
2013-06-24 14:20:00,86.3,77.0,29.97,ESE,120,13.0,22.0,73,0.00,,,0.00,weatherlink.com 1.10,2013-06-24 19:20:00,
2013-06-24 14:50:00,85.2,77.0,29.97,SE,127,18.0,25.0,75,0.00,,,0.00,weatherlink.com 1.10,2013-06-24 19:50:00,
2013-06-24 15:20:00,85.4,76.0,29.95,SSE,149,14.0,24.0,74,0.00,,,0.00,weatherlink.com 1.10,2013-06-24 20:20:00,
2013-06-24 15:35:00,86.2,76.0,29.94,SE,125,19.0,23.0,72,0.00,,,0.00,weatherlink.com 1.10,2013-06-24 20:35:00,
2013-06-24 16:05:00,86.0,76.0,29.94,SE,136,16.0,23.0,73,0.00,,,0.00,weatherlink.com 1.10,2013-06-24 21:05:00,
2013-06-24 16:20:00,85.0,76.0,29.94,SSE,150,15.0,24.0,74,0.00,,,0.00,weatherlink.com 1.10,2013-06-24 21:20:00,
2013-06-24 16:35:00,84.9,76.0,29.93,SE,137,16.0,24.0,74,0.00,,,0.00,weatherlink.com 1.10,2013-06-24 21:35:00,
2013-06-24 16:50:00,85.0,76.0,29.93,SE,125,15.0,23.0,75,0.00,,,0.00,weatherlink.com 1.10,2013-06-24 21:50:00,
2013-06-24 17:05:00,86.0,76.0,29.93,SSE,147,13.0,20.0,73,0.00,,,0.00,weatherlink.com 1.10,2013-06-24 22:05:00,
2013-06-24 17:20:00,85.8,77.0,29.93,SE,139,11.0,20.0,74,0.00,,,0.00,weatherlink.com 1.10,2013-06-24 22:20:00,
2013-06-24 17:36:00,85.3,76.0,29.92,South,173,13.0,22.0,74,0.00,,,0.00,weatherlink.com 1.10,2013-06-24 22:36:00,
2013-06-24 17:51:00,84.3,76.0,29.92,SE,146,14.0,22.0,76,0.00,,,0.00,weatherlink.com 1.10,2013-06-24 22:51:00,
2013-06-24 18:06:00,83.7,76.0,29.92,SSE,148,19.0,21.0,78,0.00,,,0.00,weatherlink.com 1.10,2013-06-24 23:06:00,
2013-06-24 18:21:00,83.9,76.0,29.92,ESE,117,15.0,21.0,78,0.00,,,0.00,weatherlink.com 1.10,2013-06-24 23:21:00,
2013-06-24 18:36:00,84.1,76.0,29.91,SSE,165,16.0,20.0,77,0.00,,,0.00,weatherlink.com 1.10,2013-06-24 23:36:00,
2013-06-24 18:51:00,83.8,76.0,29.91,ESE,117,12.0,18.0,77,0.00,,,0.00,weatherlink.com 1.10,2013-06-24 23:51:00,
2013-06-24 19:06:00,83.3,76.0,29.91,SE,144,9.0,18.0,79,0.00,,,0.00,weatherlink.com 1.10,2013-06-25 00:06:00,
2013-06-24 19:21:00,82.9,76.0,29.91,SE,131,11.0,16.0,80,0.00,,,0.00,weatherlink.com 1.10,2013-06-25 00:21:00,
2013-06-24 19:36:00,82.2,76.0,29.91,SSE,156,11.0,18.0,82,0.00,,,0.00,weatherlink.com 1.10,2013-06-25 00:36:00,
2013-06-24 19:51:00,81.8,76.0,29.91,ESE,123,10.0,18.0,82,0.00,,,0.00,weatherlink.com 1.10,2013-06-25 00:51:00,
2013-06-24 20:21:00,81.2,76.0,29.91,SE,141,9.0,15.0,84,0.00,,,0.00,weatherlink.com 1.10,2013-06-25 01:21:00,
2013-06-24 20:36:00,81.0,76.0,29.91,ESE,117,9.0,15.0,85,0.00,,,0.00,weatherlink.com 1.10,2013-06-25 01:36:00,
2013-06-24 20:51:00,80.9,76.0,29.92,SSE,152,10.0,13.0,85,0.00,,,0.00,weatherlink.com 1.10,2013-06-25 01:51:00,
2013-06-24 21:06:00,80.6,76.0,29.91,ESE,109,11.0,14.0,86,0.00,,,0.00,weatherlink.com 1.10,2013-06-25 02:06:00,
2013-06-24 21:21:00,80.6,76.0,29.92,SE,138,8.0,18.0,86,0.00,,,0.00,weatherlink.com 1.10,2013-06-25 02:21:00,
2013-06-24 22:06:00,80.6,76.0,29.93,ESE,122,12.0,21.0,86,0.00,,,0.00,weatherlink.com 1.10,2013-06-25 03:06:00,
2013-06-24 22:21:00,80.6,76.0,29.93,SE,129,11.0,18.0,86,0.00,,,0.00,weatherlink.com 1.10,2013-06-25 03:21:00,
2013-06-24 22:36:00,80.5,76.0,29.95,SE,134,10.0,19.0,86,0.00,,,0.00,weatherlink.com 1.10,2013-06-25 03:36:00,
2013-06-24 22:51:00,80.6,77.0,29.95,SE,136,15.0,16.0,87,0.00,,,0.00,weatherlink.com 1.10,2013-06-25 03:51:00,
2013-06-24 23:06:00,80.6,76.0,29.96,SSE,150,8.0,15.0,86,0.00,,,0.00,weatherlink.com 1.10,2013-06-25 04:06:00,
2013-06-24 23:21:00,80.6,76.0,29.96,SE,146,13.0,16.0,86,0.00,,,0.00,weatherlink.com 1.10,2013-06-25 04:21:00,
2013-06-24 23:36:00,80.4,76.0,29.97,SE,143,14.0,16.0,87,0.00,,,0.00,weatherlink.com 1.10,2013-06-25 04:36:00,
2013-06-24 23:51:00,80.4,76.0,29.98,SE,144,9.0,16.0,87,0.00,,,0.00,weatherlink.com 1.10,2013-06-25 04:51:00,